map of NCL home
NCL - Airport
Location
City:  Newcastle upon Tyne, Northumberland, England, United Kingdom
Name:Newcastle International Airport
ICAO:EGNT
IATA:NCL

Details
Type:Airport (Aerodrome, Airfield)
Use:Public/Civil, International (customs port of entry)
Latitude:5502'17"N (55.037922)
Longitude:141'23"W (-1.689802)
Elevation:266 ft (81 m)
Variation:1.51W (WMM2015 magnetic declination)
0.16 annual change
Runways:1
Longest:7641 × 151 ft (2329 × 46 m), paved

Time
Time Zone:UTC+0 (DST+1)
Local Time:

Weather
METAR:EGNT 232250Z VRB03KT 9999 FEW040 15/13 Q1018
TAF:EGNT 232250Z 2400/2424 16008KT 9999 FEW040

Related Locations
Nearby:
Farthest:NZBA: 11718 mi / 18859 km
Balclutha, OTA, NZ

Find:

   beyond  
but within

Other Information
Maps:
NOTAMs:
Links:
Sources:

  
flag of United Kingdom
flag of England
flag of Northumberland
  

Airport Diagram

Airport diagram for NCL

Airport diagram PDF

Sectional Chart

Flight Planning
at skyvector.com

Satellite Image

Google Maps Satellite view

 

Copyright © 2004-2017 Karl L. Swartz. All rights reserved.
The Great Circle Mapper name and logo are trademarks of the Great Circle Mapper.
All other trademarks mentioned herein belong to their respective owners.
Please see credits for attibutions and further copyright information.

  Follow gcmap on Facebook Follow gcmap on Twitter Follow gcmap on Google+ GCmap on LinkedIn

hCard Microformat

Geo Microformat